Regional Weather Roundup
Issued by NWS

Home | Current Version | Previous Version | Graphics & Text | Print | Product List | Glossary Off
Versions: 1 2 3 4 5 6 7 8 9 10 11 12 13 14 15 16 17 18 19 20 21 22 23 24 25 26 27 28 29 30 31 32 33 34 35 36 37 38 39 40 41 42 43 44 45 46 47 48 49 50

000
ASUS43 KMPX 280110
RWRMN
WEATHER ROUNDUP FOR MINNESOTA
NATIONAL WEATHER SERVICE TWIN CITIES/CHANHASSEN MN
800 PM CDT WED AUG 27 2014


NOTE: "FAIR" INDICATES FEW OR NO CLOUDS BELOW 12,000 FEET WITH NO
SIGNIFICANT WEATHER AND/OR OBSTRUCTIONS TO VISIBILITY. N/A MEANS
CURRENT SKY AND/OR WEATHER CONDITIONS ARE NOT AVAILABLE.

MNZ060>063-068>070-280200-
   Twin Cities Metro

CITY           SKY/WX    TMP DP  RH WIND       PRES   REMARKS
TWIN CITIES    PTCLDY    73  57  57 E9        30.11S
ST PAUL        CLOUDY    72  57  59 NE5       30.12S
CRYSTAL        PTCLDY    72  57  59 NE5       30.10S
BLAINE         MOCLDY    72  61  68 NE5       30.12S
LAKEVILLE      CLEAR     64  59  82 CALM      30.12S
EDEN PRAIRIE   PTCLDY    72  57  59 SE5       30.10S
SOUTH ST PAUL  PTCLDY    72  56  57 E3        30.11S
LAKE ELMO      FAIR      68  59  73 E5        30.13S
$$
MNZ001>005-007-008-013>017-022>024-027-028-280200-
   Northwest Minnesota

CITY           SKY/WX    TMP DP  RH WIND       PRES   REMARKS
BEMIDJI        CLEAR     68  52  58 CALM      30.12S
HALLOCK        CLEAR     66  55  68 S6        30.06F
ROSEAU         CLEAR     66  54  63 S3        30.10S
WARROAD        CLEAR     63  55  77 SE5       30.11R
THIEF RVR FALL CLEAR     66  54  63 CALM      30.10S
CROOKSTON      CLEAR     68  59  73 S3        30.08F
FOSSTON        CLEAR     66  55  68 CALM      30.11F
DETROIT LAKES  CLOUDY    68  59  73 SE5       30.13S
MOORHEAD       CLEAR     72  63  73 CALM      30.09S
PARK RAPIDS    CLEAR     66  57  72 CALM      30.12F
MAHNOMEN       FAIR      65  58  77 S5        30.11S
$$
MNZ006-009>011-018-025>026-280200-
   North Central Minnesota

CITY           SKY/WX    TMP DP  RH WIND       PRES   REMARKS
BAUDETTE       CLEAR     61  54  77 CALM      30.10F
FLAG ISLAND    CLEAR     66  52  59 S3        30.09S
INTL FALLS     CLEAR     60  54  80 CALM      30.11F
WASKISH        CLEAR     63  55  77 CALM      30.11F
BIG FORK       CLEAR     61  55  82 CALM      30.13S
LONGVILLE      CLEAR     63  57  82 S3        30.12F
GRAND RAPIDS   PTCLDY    63  55  77 CALM      30.13S
CRANE LAKE     CLEAR     55  54  94 CALM      30.13F
ORR            CLEAR     59  52  77 CALM      30.10S
COOK           CLEAR     61  54  77 CALM      30.13S
WALKER         FAIR      64  57  79 CALM      30.12S
$$
MNZ012-019>021-037-280200-
   Northeast Minnesota

CITY           SKY/WX    TMP DP  RH WIND       PRES   REMARKS
DULUTH         PTCLDY    63  52  67 E3        30.13F
ELY            CLEAR     61  52  72 CALM      30.13S
HIBBING        CLEAR     62  53  72 CALM      30.13F
EVELETH        CLEAR     59  52  77 CALM      30.15S
DULUTH HARBOR  CLEAR     66  61  82 CALM      30.13S
TWO HARBORS    MOCLDY    57  54  88 CALM      30.12S
SILVER BAY     CLEAR     55  55 100 CALM      30.12S
GRAND MARAIS     N/A     56  50  80 NW3       30.14S
G MARAIS ARPRT CLEAR     48  45  87 CALM      30.17S
$$
MNZ029>031-032-039>041-046>048-054>057-064-280200-
   West Central Minnesota

CITY           SKY/WX    TMP DP  RH WIND       PRES   REMARKS
FERGUS FALLS   CLEAR     70  55  60 SE3       30.09S
WHEATON        MOCLDY    66  61  82 SE5       30.11R
MORRIS         MOCLDY    70  61  73 SE3       30.09S
ALEXANDRIA     CLEAR     68  59  73 E5        30.13S
ELBOW LAKE     FAIR      69  60  72 SE5       30.10S
WADENA         CLOUDY    66  59  77 CALM      30.12S
GLENWOOD       CLEAR     66  61  82 E5        30.12F
APPLETON       MOCLDY    72  61  68 E5        30.08F
BENSON         CLOUDY    72  59  64 SE5       30.10S
ORTONVILLE     PTCLDY    70  61  73 E5        30.08F
MADISON        PTCLDY    72  63  73 E5        30.08F
WILLMAR        MOCLDY    70  61  73 SE5       30.12S
$$
MNZ033>034-036-042>043-049>051-058-059-280200-
   Central Minnesota

CITY           SKY/WX    TMP DP  RH WIND       PRES   REMARKS
ST CLOUD       CLEAR     70  59  68 E3        30.12S
SAUK CENTRE    MOCLDY    69  59  71 CALM      30.12S
PAYNESVILLE    CLEAR     68  56  66 NE3       30.12S
AITKIN         CLEAR     61  55  82 CALM      30.12F
PINE RIVER     CLEAR     63  57  82 CALM      30.16S
BRAINERD       CLEAR     63  59  87 CALM      30.13F
STAPLES        CLOUDY    66  57  72 CALM      30.13S
LONG PRAIRIE   CLOUDY    64  61  88 NE3       30.13S
LITTLE FALLS   MOCLDY    64  57  77 CALM      30.13S
LITCHFIELD     CLEAR     70  63  78 E3        30.12S
BUFFALO        CLEAR     68  59  71 CALM      30.13S
MAPLE LAKE     CLOUDY    70  63  78 NE3       30.13S
$$
MNZ037-044-045-052-053-280200-
   East Central Minnesota

CITY           SKY/WX    TMP DP  RH WIND       PRES   REMARKS
PRINCETON      PTCLDY    70  57  64 E2        30.13S
MORA           CLEAR     63  55  77 CALM      30.15F
CAMBRIDGE      PTCLDY    70  55  60 CALM      30.12S
RUSH CITY      CLEAR     62  58  84 CALM      30.14S
MOOSE LAKE     CLEAR     61  55  82 CALM      30.12F
HINCKLEY       FAIR      63  59  88 CALM      30.13F
CLOQUET        CLEAR     63  55  77 CALM      30.14S
MCGREGOR       CLEAR     64  55  72 CALM      30.14F
$$
MNZ071>073-080-081-089-090-097-098-280200-
   Southwest Minnesota

CITY           SKY/WX    TMP DP  RH WIND       PRES   REMARKS
MONTEVIDEO     PTCLDY    68  61  77 SE3       30.10S
GRANITE FALLS  CLOUDY    70  59  68 SE6       30.11S
CANBY          CLOUDY    70  62  74 SE6       30.09F
MARSHALL       CLOUDY    72  57  60 SE9       30.09S
REDWOOD FALLS  CLEAR     70  59  68 SE5       30.10S
OLIVIA         CLEAR     70  59  68 SE3       30.10F
PIPESTONE      CLOUDY    70  64  83 SE3       30.10S
WINDOM         CLEAR     68  61  77 CALM      30.11S
WORTHINGTON    MOCLDY    68  64  88 E5        30.12S
JACKSON        MOCLDY    68  61  77 E3        30.12S
TRACY          CLOUDY    71  63  74 SE3       30.11S
SLAYTON        CLOUDY    67  64  89 CALM      30.12S
$$
MNZ065>067-074>077-082>085-091>093-280200-
   South Central Minnesota

CITY           SKY/WX    TMP DP  RH WIND       PRES   REMARKS
MANKATO        CLEAR     70  55  60 SE5       30.11S
NEW ULM        CLEAR     68  61  77 SE3       30.11R
ST JAMES       CLEAR     66  61  82 CALM      30.11S
FAIRMONT       CLEAR     64  57  77 E5        30.10S
GLENCOE        CLEAR     70  59  68 CALM      30.11S
FARIBAULT      CLEAR     72  55  56 CALM      30.12S
OWATONNA       CLEAR     70  57  64 CALM      30.12F
WASECA         CLEAR     64  54  68 E3        30.13S
ALBERT LEA     CLEAR     66  61  82 E5        30.11F
$$
MNZ078>079-086>088-094>096-280200-
   Southeast Minnesota

CITY           SKY/WX    TMP DP  RH WIND       PRES   REMARKS
ROCHESTER      CLEAR     66  59  78 CALM      30.13F
RED WING       CLEAR     68  63  83 CALM      30.10S
STANTON        CLEAR     70  59  69 CALM      30.11R
DODGE CENTER   CLEAR     68  61  77 E3        30.13S
WINONA         CLEAR     70  61  73 CALM      30.12S
AUSTIN         PTCLDY    66  61  82 CALM      30.12S
PRESTON        PTCLDY    68  62  82 CALM      30.14S
$$
ABBREVIATIONS USED IN REMARKS
   TC - TEMPERATURES IN CELSIUS
  WCI - WIND CHILL INDEX
   HX - HEAT INDEX
  VSB - VISIBILITY
$$


USA.gov is the U.S. government's official web portal to all federal, state and local government web resources and services.